BEL146 FVRG-HTZA

Flight info

Callsign BEL146
Flight time 2h 19m
Altitude 31000
Route VHA B400 KOBOD L437 DVL UL437 DV
Aircraft RJ1H/M-SDFGIRWY/LB1

Departure

Time 2026-05-06 13:02
Airport Robert Gabriel Mugabe International Airport (FVRG)

Arrival

Time 2026-05-06 15:22
Airport Abeid Amani Karume International Airport (HTZA)
Time Latitude Longitude Altitude Speed Heading
2026-05-06 12:35 -17.91942 31.09733 4914 ft 0 kts 45°
2026-05-06 12:52 -17.91951 31.09724 4915 ft 4 kts 45°
2026-05-06 12:52 -17.91971 31.09703 4912 ft 4 kts 45°
2026-05-06 12:52 -17.91984 31.09686 4915 ft 3 kts 65°
2026-05-06 12:52 -17.91988 31.09666 4913 ft 3 kts 92°
2026-05-06 12:53 -17.91984 31.09651 4911 ft 3 kts 124°
2026-05-06 12:53 -17.91973 31.09639 4914 ft 2 kts 135°
2026-05-06 12:53 -17.91973 31.09638 4913 ft 0 kts 135°
2026-05-06 12:56 -17.91974 31.09640 4915 ft 1 kts 135°
2026-05-06 12:56 -17.91984 31.09650 4911 ft 3 kts 135°
2026-05-06 12:56 -17.92001 31.09668 4913 ft 5 kts 135°
2026-05-06 12:57 -17.92028 31.09696 4913 ft 6 kts 135°
2026-05-06 12:57 -17.92063 31.09733 4911 ft 8 kts 135°
2026-05-06 12:57 -17.92106 31.09779 4913 ft 10 kts 135°
2026-05-06 12:57 -17.92157 31.09832 4911 ft 11 kts 135°
2026-05-06 12:58 -17.92214 31.09895 4913 ft 13 kts 131°
2026-05-06 12:58 -17.92255 31.09977 4911 ft 14 kts 76°
2026-05-06 12:58 -17.92189 31.10054 4916 ft 15 kts 45°
2026-05-06 12:58 -17.92116 31.10133 4913 ft 15 kts 45°
2026-05-06 12:59 -17.92036 31.10215 4913 ft 17 kts 43°
2026-05-06 12:59 -17.91950 31.10304 4911 ft 18 kts 45°
2026-05-06 12:59 -17.91859 31.10399 4913 ft 19 kts 45°
2026-05-06 12:59 -17.91765 31.10498 4910 ft 20 kts 45°
2026-05-06 13:00 -17.91663 31.10603 4910 ft 19 kts 44°
2026-05-06 13:00 -17.91590 31.10707 4910 ft 17 kts 79°
2026-05-06 13:00 -17.91626 31.10809 4913 ft 14 kts 134°
2026-05-06 13:00 -17.91705 31.10827 4914 ft 12 kts 208°
2026-05-06 13:01 -17.91763 31.10775 4912 ft 14 kts 224°
2026-05-06 13:01 -17.91914 31.10618 4914 ft 54 kts 225°
2026-05-06 13:01 -17.92297 31.10217 4914 ft 99 kts 225°
2026-05-06 13:01 -17.92873 31.09618 4916 ft 132 kts 224°
2026-05-06 13:02 -17.93594 31.08867 4989 ft 153 kts 226°
2026-05-06 13:02 -17.94372 31.08065 5185 ft 164 kts 229°
2026-05-06 13:02 -17.95211 31.07184 5365 ft 175 kts 229°
2026-05-06 13:02 -17.96010 31.06220 5723 ft 172 kts 242°
2026-05-06 13:03 -17.96291 31.05028 5998 ft 175 kts 274°
2026-05-06 13:03 -17.95846 31.03833 6193 ft 180 kts 309°
2026-05-06 13:03 -17.94789 31.03186 6592 ft 178 kts 346°
2026-05-06 13:03 -17.93534 31.03245 6819 ft 187 kts 13°
2026-05-06 13:04 -17.92341 31.03831 7111 ft 191 kts 31°
2026-05-06 13:04 -17.91367 31.04803 7308 ft 201 kts 50°
2026-05-06 13:04 -17.90607 31.06074 7512 ft 205 kts 59°
2026-05-06 13:04 -17.89946 31.07376 7869 ft 203 kts 62°
2026-05-06 13:05 -17.89300 31.08736 7992 ft 210 kts 63°
2026-05-06 13:05 -17.88653 31.10132 8161 ft 215 kts 63°
2026-05-06 13:05 -17.87946 31.11502 8350 ft 216 kts 54°
2026-05-06 13:05 -17.87004 31.12718 8578 ft 214 kts 45°
2026-05-06 13:06 -17.85978 31.13847 8737 ft 216 kts 43°
2026-05-06 13:06 -17.84845 31.14928 8723 ft 224 kts 39°
2026-05-06 13:06 -17.83661 31.16053 8728 ft 236 kts 41°
2026-05-06 13:06 -17.82429 31.17294 8669 ft 256 kts 43°
2026-05-06 13:07 -17.81026 31.18730 8227 ft 292 kts 40°
2026-05-06 13:07 -17.79415 31.19880 8945 ft 279 kts 27°
2026-05-06 13:07 -17.77657 31.20871 9047 ft 294 kts 26°
2026-05-06 13:07 -17.75850 31.21914 9388 ft 297 kts 27°
2026-05-06 13:08 -17.74058 31.23006 9761 ft 299 kts 29°
2026-05-06 13:08 -17.72230 31.24163 9821 ft 311 kts 30°
2026-05-06 13:08 -17.70386 31.25369 10160 ft 314 kts 30°
2026-05-06 13:08 -17.68566 31.26582 10530 ft 315 kts 31°
2026-05-06 13:09 -17.66719 31.27821 10925 ft 315 kts 31°
2026-05-06 13:09 -17.64867 31.29066 11329 ft 316 kts 31°
2026-05-06 13:09 -17.63014 31.30317 11743 ft 316 kts 31°
2026-05-06 13:09 -17.61167 31.31572 12147 ft 317 kts 31°
2026-05-06 13:10 -17.59310 31.32834 12520 ft 318 kts 31°
2026-05-06 13:10 -17.57452 31.34098 12917 ft 319 kts 31°
2026-05-06 13:10 -17.55601 31.35349 13285 ft 320 kts 31°
2026-05-06 13:10 -17.53719 31.36609 13671 ft 321 kts 31°
2026-05-06 13:11 -17.51830 31.37870 14037 ft 322 kts 30°
2026-05-06 13:11 -17.49925 31.39140 14361 ft 324 kts 30°
2026-05-06 13:11 -17.48043 31.40403 14693 ft 326 kts 30°
2026-05-06 13:11 -17.46138 31.41690 15037 ft 327 kts 30°
2026-05-06 13:12 -17.44215 31.42983 15360 ft 329 kts 30°
2026-05-06 13:12 -17.42279 31.44272 15696 ft 330 kts 30°
2026-05-06 13:12 -17.40333 31.45571 16037 ft 332 kts 30°
2026-05-06 13:12 -17.38383 31.46883 16364 ft 334 kts 30°
2026-05-06 13:13 -17.36425 31.48204 16689 ft 336 kts 29°
2026-05-06 13:13 -17.35118 31.49076 16895 ft 337 kts 29°
2026-05-06 13:13 -17.32482 31.50821 17323 ft 339 kts 28°
2026-05-06 13:13 -17.30482 31.52147 17632 ft 340 kts 28°
2026-05-06 13:14 -17.29129 31.53047 17809 ft 342 kts 28°
2026-05-06 13:14 -17.27140 31.54368 18107 ft 343 kts 28°
2026-05-06 13:14 -17.25126 31.55715 18382 ft 344 kts 28°
2026-05-06 13:14 -17.23101 31.57071 18640 ft 345 kts 29°
2026-05-06 13:15 -17.21074 31.58433 18877 ft 347 kts 29°
2026-05-06 13:15 -17.19034 31.59803 19125 ft 348 kts 29°
2026-05-06 13:15 -17.16990 31.61175 19360 ft 350 kts 29°
2026-05-06 13:15 -17.14933 31.62559 19603 ft 352 kts 29°
2026-05-06 13:16 -17.12865 31.63945 19839 ft 353 kts 29°
2026-05-06 13:16 -17.10816 31.65319 20074 ft 354 kts 29°
2026-05-06 13:16 -17.08735 31.66712 20304 ft 356 kts 29°
2026-05-06 13:16 -17.06642 31.68115 20536 ft 357 kts 29°
2026-05-06 13:17 -17.04538 31.69517 20784 ft 358 kts 28°
2026-05-06 13:17 -17.02419 31.70911 20982 ft 360 kts 29°
2026-05-06 13:17 -17.00325 31.72302 21208 ft 361 kts 29°
2026-05-06 13:17 -16.98190 31.73721 21418 ft 363 kts 29°
2026-05-06 13:18 -16.96058 31.75142 21647 ft 364 kts 29°
2026-05-06 13:18 -16.93904 31.76578 21853 ft 366 kts 29°
2026-05-06 13:18 -16.91784 31.77992 22111 ft 367 kts 29°
2026-05-06 13:18 -16.89620 31.79435 22376 ft 369 kts 29°
2026-05-06 13:19 -16.87447 31.80881 22652 ft 371 kts 29°
2026-05-06 13:19 -16.85267 31.82333 22922 ft 373 kts 29°
2026-05-06 13:19 -16.83075 31.83789 23180 ft 374 kts 29°
2026-05-06 13:19 -16.80871 31.85253 23430 ft 376 kts 29°
2026-05-06 13:20 -16.78684 31.86707 23661 ft 378 kts 29°
2026-05-06 13:20 -16.76463 31.88184 23871 ft 379 kts 29°
2026-05-06 13:20 -16.74228 31.89670 24085 ft 381 kts 29°
2026-05-06 13:20 -16.71975 31.91145 24282 ft 382 kts 29°
2026-05-06 13:21 -16.69723 31.92634 24492 ft 384 kts 29°
2026-05-06 13:21 -16.67467 31.94133 24747 ft 384 kts 29°
2026-05-06 13:21 -16.65214 31.95636 24992 ft 383 kts 29°
2026-05-06 13:21 -16.62986 31.97096 25229 ft 383 kts 28°
2026-05-06 13:22 -16.60730 31.98577 25478 ft 383 kts 29°
2026-05-06 13:22 -16.58478 32.00078 25729 ft 383 kts 29°
2026-05-06 13:22 -16.56221 32.01568 25971 ft 383 kts 29°
2026-05-06 13:22 -16.53965 32.03047 26203 ft 383 kts 29°
2026-05-06 13:23 -16.51717 32.04542 26444 ft 383 kts 29°
2026-05-06 13:23 -16.49460 32.06031 26681 ft 383 kts 29°
2026-05-06 13:23 -16.47229 32.07495 26910 ft 383 kts 28°
2026-05-06 13:23 -16.44972 32.08972 27141 ft 383 kts 29°
2026-05-06 13:24 -16.42723 32.10475 27382 ft 383 kts 30°
2026-05-06 13:24 -16.40496 32.12006 27603 ft 384 kts 30°
2026-05-06 13:24 -16.38273 32.13559 27817 ft 384 kts 31°
2026-05-06 13:24 -16.36056 32.15122 28029 ft 384 kts 31°
2026-05-06 13:25 -16.33841 32.16689 28241 ft 384 kts 31°
2026-05-06 13:25 -16.31657 32.18240 28450 ft 384 kts 31°
2026-05-06 13:25 -16.29445 32.19812 28656 ft 384 kts 31°
2026-05-06 13:25 -16.27240 32.21385 28858 ft 384 kts 31°
2026-05-06 13:26 -16.25029 32.22961 29052 ft 384 kts 31°
2026-05-06 13:26 -16.22820 32.24518 29245 ft 384 kts 30°
2026-05-06 13:26 -16.20594 32.26067 29438 ft 384 kts 30°
2026-05-06 13:26 -16.18372 32.27614 29629 ft 384 kts 31°
2026-05-06 13:27 -16.16184 32.29163 29807 ft 385 kts 31°
2026-05-06 13:27 -16.13944 32.30739 29982 ft 384 kts 30°
2026-05-06 13:27 -16.11717 32.32290 30138 ft 384 kts 30°
2026-05-06 13:27 -16.09525 32.33812 30310 ft 384 kts 30°
2026-05-06 13:28 -16.07311 32.35361 30467 ft 384 kts 31°
2026-05-06 13:28 -16.05104 32.36917 30633 ft 383 kts 30°
2026-05-06 13:28 -16.02905 32.38459 30779 ft 379 kts 30°
2026-05-06 13:29 -15.98497 32.41539 30859 ft 385 kts 30°
2026-05-06 13:29 -15.93996 32.44678 30876 ft 394 kts 31°
2026-05-06 13:30 -15.89410 32.47907 30879 ft 402 kts 30°
2026-05-06 13:30 -15.84704 32.51188 30882 ft 411 kts 31°
2026-05-06 13:31 -15.79934 32.54547 30882 ft 418 kts 30°
2026-05-06 13:31 -15.75062 32.57930 30884 ft 424 kts 31°
2026-05-06 13:32 -15.70189 32.61352 30881 ft 426 kts 31°
2026-05-06 13:32 -15.65254 32.64774 30876 ft 427 kts 31°
2026-05-06 13:33 -15.60326 32.68226 30888 ft 427 kts 30°
2026-05-06 13:33 -15.55351 32.71565 30885 ft 424 kts 28°
2026-05-06 13:34 -15.50248 32.74632 30884 ft 423 kts 26°
2026-05-06 13:34 -15.45126 32.77615 30886 ft 424 kts 26°
2026-05-06 13:35 -15.40007 32.80658 30890 ft 424 kts 26°
2026-05-06 13:35 -15.34889 32.83715 30889 ft 424 kts 27°
2026-05-06 13:36 -15.29789 32.86726 30897 ft 425 kts 26°
2026-05-06 13:36 -15.24647 32.89784 30900 ft 425 kts 27°
2026-05-06 13:37 -15.19500 32.92824 30903 ft 424 kts 26°
2026-05-06 13:37 -15.14400 32.95859 30911 ft 424 kts 27°
2026-05-06 13:38 -15.09270 32.98877 30913 ft 424 kts 26°
2026-05-06 13:38 -15.04143 33.01931 30919 ft 425 kts 26°
2026-05-06 13:39 -14.99008 33.04945 30919 ft 424 kts 27°
2026-05-06 13:39 -14.93930 33.07989 30928 ft 424 kts 27°
2026-05-06 13:40 -14.88885 33.11170 30938 ft 425 kts 28°
2026-05-06 13:40 -14.83873 33.14406 30942 ft 425 kts 29°
2026-05-06 13:41 -14.78853 33.17659 30952 ft 425 kts 29°
2026-05-06 13:41 -14.73819 33.20883 30960 ft 425 kts 28°
2026-05-06 13:42 -14.68825 33.24083 30971 ft 425 kts 29°
2026-05-06 13:42 -14.63792 33.27304 30977 ft 424 kts 28°
2026-05-06 13:43 -14.58787 33.30506 30991 ft 425 kts 29°
2026-05-06 13:43 -14.53763 33.33713 30996 ft 424 kts 29°
2026-05-06 13:44 -14.48738 33.36940 31003 ft 424 kts 29°
2026-05-06 13:44 -14.43729 33.40178 31006 ft 424 kts 29°
2026-05-06 13:45 -14.38762 33.43393 31019 ft 424 kts 30°
2026-05-06 13:45 -14.31249 33.48261 31022 ft 424 kts 30°
2026-05-06 13:46 -14.26245 33.51511 31023 ft 424 kts 30°
2026-05-06 13:46 -14.21272 33.54730 31034 ft 424 kts 29°
2026-05-06 13:47 -14.16259 33.57955 31035 ft 424 kts 30°
2026-05-06 13:47 -14.11246 33.61183 31039 ft 424 kts 29°
2026-05-06 13:48 -14.06269 33.64392 31050 ft 424 kts 30°
2026-05-06 13:48 -14.01271 33.67643 31059 ft 424 kts 30°
2026-05-06 13:49 -13.96269 33.70906 31064 ft 424 kts 30°
2026-05-06 13:49 -13.91306 33.74138 31070 ft 424 kts 29°
2026-05-06 13:50 -13.86309 33.77371 31073 ft 424 kts 30°
2026-05-06 13:50 -13.81335 33.80636 31073 ft 424 kts 31°
2026-05-06 13:51 -13.76592 33.84215 31073 ft 426 kts 36°
2026-05-06 13:51 -13.71948 33.88011 31070 ft 426 kts 36°
2026-05-06 13:52 -13.67296 33.91802 31070 ft 426 kts 36°
2026-05-06 13:52 -13.62627 33.95524 31068 ft 426 kts 35°
2026-05-06 13:53 -13.57958 33.99271 31066 ft 426 kts 36°
2026-05-06 13:53 -13.53257 34.03030 31055 ft 426 kts 36°
2026-05-06 13:54 -13.48587 34.06747 31047 ft 426 kts 35°
2026-05-06 13:54 -13.43915 34.10499 31042 ft 426 kts 36°
2026-05-06 13:55 -13.39221 34.14238 31042 ft 426 kts 36°
2026-05-06 13:55 -13.34569 34.17963 31039 ft 426 kts 35°
2026-05-06 13:56 -13.29887 34.21704 31028 ft 426 kts 36°
2026-05-06 13:56 -13.25190 34.25430 31022 ft 426 kts 36°
2026-05-06 13:57 -13.20540 34.29159 31017 ft 426 kts 36°
2026-05-06 13:57 -13.15848 34.32875 31015 ft 425 kts 36°
2026-05-06 13:58 -13.11133 34.36568 31008 ft 425 kts 35°
2026-05-06 13:58 -13.06411 34.40239 31003 ft 425 kts 35°
2026-05-06 13:59 -13.01727 34.43871 30995 ft 425 kts 36°
2026-05-06 13:59 -12.97009 34.47522 30990 ft 424 kts 35°
2026-05-06 14:00 -12.92296 34.51164 30993 ft 424 kts 36°
2026-05-06 14:00 -12.87582 34.54802 30989 ft 424 kts 36°
2026-05-06 14:01 -12.82865 34.58441 30986 ft 424 kts 36°
2026-05-06 14:01 -12.78150 34.62075 30983 ft 423 kts 36°
2026-05-06 14:02 -12.73442 34.65703 30980 ft 423 kts 36°
2026-05-06 14:02 -12.68768 34.69306 30976 ft 423 kts 36°
2026-05-06 14:03 -12.64063 34.72931 30980 ft 423 kts 36°
2026-05-06 14:03 -12.59370 34.76564 30973 ft 423 kts 36°
2026-05-06 14:04 -12.54714 34.80264 30980 ft 423 kts 37°
2026-05-06 14:04 -12.50847 34.83410 30977 ft 423 kts 37°
2026-05-06 14:05 -12.46221 34.87127 30978 ft 423 kts 37°
2026-05-06 14:05 -12.41610 34.90821 30978 ft 423 kts 37°
2026-05-06 14:06 -12.36986 34.94550 30967 ft 423 kts 37°
2026-05-06 14:06 -12.32365 34.98282 30968 ft 422 kts 37°
2026-05-06 14:07 -12.27770 35.01969 30965 ft 422 kts 37°
2026-05-06 14:07 -12.23151 35.05672 30960 ft 422 kts 37°
2026-05-06 14:08 -12.18536 35.09375 30956 ft 421 kts 37°
2026-05-06 14:08 -12.13928 35.13073 30951 ft 421 kts 37°
2026-05-06 14:09 -12.09327 35.16767 30952 ft 420 kts 37°
2026-05-06 14:09 -12.04724 35.20461 30951 ft 420 kts 37°
2026-05-06 14:10 -12.00154 35.24128 30946 ft 420 kts 37°
2026-05-06 14:10 -11.95551 35.27817 30944 ft 419 kts 37°
2026-05-06 14:11 -11.90958 35.31501 30944 ft 419 kts 37°
2026-05-06 14:11 -11.86372 35.35175 30942 ft 419 kts 37°
2026-05-06 14:12 -11.81799 35.38835 30939 ft 419 kts 37°
2026-05-06 14:12 -11.77211 35.42506 30935 ft 419 kts 37°
2026-05-06 14:13 -11.72623 35.46177 30928 ft 418 kts 37°
2026-05-06 14:13 -11.68035 35.49841 30924 ft 418 kts 37°
2026-05-06 14:14 -11.63476 35.53478 30923 ft 419 kts 37°
2026-05-06 14:14 -11.58880 35.57141 30919 ft 419 kts 37°
2026-05-06 14:15 -11.54274 35.60786 30918 ft 418 kts 37°
2026-05-06 14:15 -11.49646 35.64402 30917 ft 419 kts 37°
2026-05-06 14:16 -11.45033 35.68034 30921 ft 419 kts 37°
2026-05-06 14:16 -11.40437 35.71626 30921 ft 419 kts 37°
2026-05-06 14:17 -11.35804 35.75258 30916 ft 419 kts 37°
2026-05-06 14:17 -11.31182 35.78882 30916 ft 419 kts 37°
2026-05-06 14:18 -11.26571 35.82481 30921 ft 419 kts 37°
2026-05-06 14:18 -11.21936 35.86115 30920 ft 419 kts 37°
2026-05-06 14:19 -11.17293 35.89739 30921 ft 419 kts 37°
2026-05-06 14:19 -11.12693 35.93342 30922 ft 419 kts 37°
2026-05-06 14:20 -11.08051 35.96953 30923 ft 420 kts 37°
2026-05-06 14:20 -11.03412 36.00592 30925 ft 419 kts 37°
2026-05-06 14:21 -10.98794 36.04192 30931 ft 419 kts 37°
2026-05-06 14:21 -10.94156 36.07798 30929 ft 420 kts 37°
2026-05-06 14:22 -10.89523 36.11424 30930 ft 420 kts 37°
2026-05-06 14:22 -10.84909 36.15020 30931 ft 420 kts 37°
2026-05-06 14:23 -10.80271 36.18624 30931 ft 419 kts 37°
2026-05-06 14:23 -10.75641 36.22238 30931 ft 419 kts 37°
2026-05-06 14:24 -10.70997 36.25854 30935 ft 420 kts 37°
2026-05-06 14:24 -10.66355 36.29455 30935 ft 420 kts 37°
2026-05-06 14:25 -10.61752 36.33049 30935 ft 419 kts 37°
2026-05-06 14:25 -10.57100 36.36644 30935 ft 419 kts 37°
2026-05-06 14:26 -10.52470 36.40264 30937 ft 419 kts 37°
2026-05-06 14:26 -10.47821 36.43856 30934 ft 419 kts 37°
2026-05-06 14:27 -10.43221 36.47441 30934 ft 419 kts 37°
2026-05-06 14:27 -10.38580 36.51033 30933 ft 419 kts 37°
2026-05-06 14:28 -10.33948 36.54636 30930 ft 419 kts 37°
2026-05-06 14:28 -10.29334 36.58217 30929 ft 419 kts 37°
2026-05-06 14:29 -10.24684 36.61812 30928 ft 419 kts 37°
2026-05-06 14:29 -10.20059 36.65414 30927 ft 419 kts 37°
2026-05-06 14:30 -10.15416 36.69010 30926 ft 419 kts 37°
2026-05-06 14:30 -10.10772 36.72598 30925 ft 419 kts 37°
2026-05-06 14:31 -10.06152 36.76192 30924 ft 419 kts 37°
2026-05-06 14:31 -10.01545 36.79751 30923 ft 418 kts 37°
2026-05-06 14:32 -9.96907 36.83331 30920 ft 418 kts 37°
2026-05-06 14:32 -9.92280 36.86938 30919 ft 419 kts 37°
2026-05-06 14:33 -9.87677 36.90495 30920 ft 419 kts 37°
2026-05-06 14:33 -9.83031 36.94080 30920 ft 419 kts 37°
2026-05-06 14:34 -9.78396 36.97653 30916 ft 418 kts 37°
2026-05-06 14:34 -9.73761 37.01234 30917 ft 418 kts 38°
2026-05-06 14:35 -9.69140 37.04823 30918 ft 418 kts 37°
2026-05-06 14:35 -9.64531 37.08378 30917 ft 418 kts 37°
2026-05-06 14:36 -9.59891 37.11952 30917 ft 418 kts 37°
2026-05-06 14:36 -9.55256 37.15521 30916 ft 419 kts 37°
2026-05-06 14:37 -9.50611 37.19096 30918 ft 419 kts 37°
2026-05-06 14:37 -9.46010 37.22665 30916 ft 419 kts 37°
2026-05-06 14:38 -9.41365 37.26245 30913 ft 419 kts 37°
2026-05-06 14:38 -9.36726 37.29815 30916 ft 419 kts 37°
2026-05-06 14:39 -9.32078 37.33390 30918 ft 418 kts 37°
2026-05-06 14:39 -9.27474 37.36932 30911 ft 418 kts 37°
2026-05-06 14:40 -9.22833 37.40503 30913 ft 419 kts 37°
2026-05-06 14:40 -9.18194 37.44070 30917 ft 419 kts 37°
2026-05-06 14:41 -9.13556 37.47637 30917 ft 419 kts 37°
2026-05-06 14:41 -9.08910 37.51210 30914 ft 418 kts 37°
2026-05-06 14:42 -9.04275 37.54771 30915 ft 418 kts 37°
2026-05-06 14:42 -8.99674 37.58315 30917 ft 418 kts 38°
2026-05-06 14:43 -8.95036 37.61881 30916 ft 418 kts 37°
2026-05-06 14:43 -8.90403 37.65438 30916 ft 418 kts 38°
2026-05-06 14:44 -8.85769 37.68995 30919 ft 418 kts 37°
2026-05-06 14:45 -8.78824 37.74320 30923 ft 418 kts 37°
2026-05-06 14:45 -8.74219 37.77855 30924 ft 418 kts 38°
2026-05-06 14:46 -8.69596 37.81411 30928 ft 418 kts 38°
2026-05-06 14:46 -8.64955 37.84968 30925 ft 418 kts 38°
2026-05-06 14:47 -8.60322 37.88517 30929 ft 417 kts 38°
2026-05-06 14:47 -8.55693 37.92061 30927 ft 417 kts 38°
2026-05-06 14:48 -8.51063 37.95605 30923 ft 417 kts 38°
2026-05-06 14:48 -8.46433 37.99148 30920 ft 417 kts 38°
2026-05-06 14:49 -8.41830 38.02669 30920 ft 417 kts 38°
2026-05-06 14:49 -8.37195 38.06211 30917 ft 417 kts 38°
2026-05-06 14:50 -8.32581 38.09768 30922 ft 417 kts 38°
2026-05-06 14:50 -8.27956 38.13303 30920 ft 416 kts 38°
2026-05-06 14:51 -8.23348 38.16810 30917 ft 416 kts 38°
2026-05-06 14:51 -8.18741 38.20342 30916 ft 416 kts 38°
2026-05-06 14:52 -8.14148 38.23844 30918 ft 416 kts 38°
2026-05-06 14:52 -8.09518 38.27367 30920 ft 416 kts 38°
2026-05-06 14:53 -8.04903 38.30908 30918 ft 416 kts 38°
2026-05-06 14:53 -8.00303 38.34414 30919 ft 416 kts 38°
2026-05-06 14:54 -7.95674 38.37939 30917 ft 416 kts 38°
2026-05-06 14:54 -7.91039 38.41468 30922 ft 416 kts 38°
2026-05-06 14:55 -7.87195 38.44396 30923 ft 416 kts 38°
2026-05-06 14:55 -7.81809 38.48504 30922 ft 417 kts 38°
2026-05-06 14:56 -7.77966 38.51438 30921 ft 417 kts 38°
2026-05-06 14:56 -7.73333 38.54979 30926 ft 417 kts 38°
2026-05-06 14:56 -7.71011 38.56755 30679 ft 421 kts 38°
2026-05-06 14:57 -7.68686 38.58532 30334 ft 413 kts 38°
2026-05-06 14:57 -7.66436 38.60247 29992 ft 409 kts 38°
2026-05-06 14:57 -7.64160 38.61979 29598 ft 411 kts 38°
2026-05-06 14:57 -7.61865 38.63725 29201 ft 412 kts 38°
2026-05-06 14:58 -7.59573 38.65468 28820 ft 411 kts 38°
2026-05-06 14:58 -7.57309 38.67188 28443 ft 411 kts 38°
2026-05-06 14:58 -7.55023 38.68925 28077 ft 412 kts 38°
2026-05-06 14:58 -7.52728 38.70670 27705 ft 413 kts 38°
2026-05-06 14:59 -7.50436 38.72414 27346 ft 413 kts 38°
2026-05-06 14:59 -7.48141 38.74161 26989 ft 414 kts 38°
2026-05-06 14:59 -7.45839 38.75914 26638 ft 414 kts 38°
2026-05-06 14:59 -7.43541 38.77664 26288 ft 414 kts 38°
2026-05-06 15:00 -7.41234 38.79420 25942 ft 415 kts 38°
2026-05-06 15:00 -7.38960 38.81152 25603 ft 415 kts 38°
2026-05-06 15:00 -7.36647 38.82913 25269 ft 416 kts 38°
2026-05-06 15:00 -7.34336 38.84673 24937 ft 417 kts 38°
2026-05-06 15:01 -7.32013 38.86442 24606 ft 417 kts 38°
2026-05-06 15:01 -7.29694 38.88207 24282 ft 417 kts 38°
2026-05-06 15:01 -7.27372 38.89973 23958 ft 418 kts 38°
2026-05-06 15:01 -7.25056 38.91732 23628 ft 418 kts 38°
2026-05-06 15:02 -7.22755 38.93483 23278 ft 418 kts 38°
2026-05-06 15:02 -7.20439 38.95242 22897 ft 414 kts 38°
2026-05-06 15:02 -7.18153 38.96983 22513 ft 410 kts 38°
2026-05-06 15:02 -7.15878 38.98713 22137 ft 409 kts 38°
2026-05-06 15:03 -7.13602 39.00417 21763 ft 406 kts 38°
2026-05-06 15:03 -7.11352 39.02128 21398 ft 404 kts 38°
2026-05-06 15:03 -7.09110 39.03835 21045 ft 402 kts 38°
2026-05-06 15:03 -7.06866 39.05518 20675 ft 400 kts 38°
2026-05-06 15:04 -7.04675 39.07183 20323 ft 398 kts 38°
2026-05-06 15:04 -7.02469 39.08863 19965 ft 396 kts 38°
2026-05-06 15:04 -7.00262 39.10518 19620 ft 394 kts 38°
2026-05-06 15:04 -6.98083 39.12179 19277 ft 392 kts 38°
2026-05-06 15:05 -6.95908 39.13833 18936 ft 390 kts 37°
2026-05-06 15:05 -6.93736 39.15462 18602 ft 388 kts 37°
2026-05-06 15:05 -6.91588 39.17048 18267 ft 386 kts 33°
2026-05-06 15:05 -6.89089 39.18036 17900 ft 387 kts 11°
2026-05-06 15:06 -6.86413 39.18415 17530 ft 386 kts
2026-05-06 15:06 -6.83742 39.18597 17157 ft 384 kts
2026-05-06 15:06 -6.81080 39.18515 16790 ft 382 kts 356°
2026-05-06 15:06 -6.78439 39.18288 16428 ft 380 kts 354°
2026-05-06 15:07 -6.75851 39.18007 16064 ft 378 kts 354°
2026-05-06 15:07 -6.73213 39.17700 15706 ft 376 kts 353°
2026-05-06 15:07 -6.70652 39.17394 15350 ft 374 kts 353°
2026-05-06 15:07 -6.68073 39.17104 14996 ft 372 kts 354°
2026-05-06 15:08 -6.65502 39.16831 14646 ft 370 kts 354°
2026-05-06 15:08 -6.62981 39.16569 14299 ft 356 kts 354°
2026-05-06 15:08 -6.60552 39.16323 13946 ft 346 kts 354°
2026-05-06 15:08 -6.58202 39.16087 13583 ft 339 kts 354°
2026-05-06 15:09 -6.55861 39.15857 13193 ft 337 kts 354°
2026-05-06 15:09 -6.53532 39.15624 12802 ft 335 kts 354°
2026-05-06 15:09 -6.51233 39.15375 12424 ft 326 kts 354°
2026-05-06 15:09 -6.49009 39.15150 12050 ft 317 kts 354°
2026-05-06 15:10 -6.46848 39.14935 11680 ft 314 kts 354°
2026-05-06 15:10 -6.44676 39.14711 11313 ft 312 kts 354°
2026-05-06 15:10 -6.42522 39.14477 10951 ft 310 kts 354°
2026-05-06 15:10 -6.40380 39.14262 10598 ft 309 kts 354°
2026-05-06 15:11 -6.38246 39.14051 10250 ft 305 kts 354°
2026-05-06 15:11 -6.36142 39.13826 9897 ft 299 kts 354°
2026-05-06 15:11 -6.34090 39.13611 9519 ft 294 kts 354°
2026-05-06 15:11 -6.32088 39.13413 9136 ft 290 kts 354°
2026-05-06 15:12 -6.30095 39.13216 8755 ft 286 kts 354°
2026-05-06 15:12 -6.28121 39.13018 8383 ft 283 kts 354°
2026-05-06 15:12 -6.26171 39.12822 8019 ft 280 kts 354°
2026-05-06 15:12 -6.24237 39.12625 7661 ft 278 kts 355°
2026-05-06 15:13 -6.22316 39.12424 7291 ft 276 kts 355°
2026-05-06 15:13 -6.20423 39.12223 6937 ft 275 kts 355°
2026-05-06 15:13 -6.18526 39.12020 6597 ft 273 kts 354°
2026-05-06 15:13 -6.16638 39.11821 6251 ft 272 kts 354°
2026-05-06 15:14 -6.14758 39.11623 5887 ft 271 kts 354°
2026-05-06 15:14 -6.12881 39.11425 5526 ft 270 kts 354°
2026-05-06 15:14 -6.11015 39.11226 5204 ft 268 kts 354°
2026-05-06 15:14 -6.09180 39.11032 4964 ft 263 kts 355°
2026-05-06 15:15 -6.07379 39.10836 4724 ft 258 kts 355°
2026-05-06 15:15 -6.05605 39.10643 4485 ft 255 kts 355°
2026-05-06 15:15 -6.03855 39.10468 4234 ft 251 kts
2026-05-06 15:15 -6.02219 39.10897 3997 ft 242 kts 37°
2026-05-06 15:16 -6.01210 39.12160 3825 ft 229 kts 74°
2026-05-06 15:16 -6.01139 39.13697 3659 ft 218 kts 108°
2026-05-06 15:16 -6.01908 39.14946 3488 ft 210 kts 134°
2026-05-06 15:16 -6.02903 39.15985 3308 ft 208 kts 135°
2026-05-06 15:17 -6.03928 39.17003 3153 ft 205 kts 136°
2026-05-06 15:17 -6.04939 39.17966 3046 ft 194 kts 137°
2026-05-06 15:17 -6.05889 39.18849 2963 ft 180 kts 137°
2026-05-06 15:17 -6.06777 39.19668 2764 ft 163 kts 137°
2026-05-06 15:18 -6.07598 39.20420 2585 ft 158 kts 137°
2026-05-06 15:18 -6.08457 39.21116 2410 ft 158 kts 150°
2026-05-06 15:18 -6.09541 39.21267 2254 ft 161 kts 178°
2026-05-06 15:18 -6.10652 39.21332 2035 ft 162 kts 172°
2026-05-06 15:19 -6.11774 39.21452 1821 ft 161 kts 172°
2026-05-06 15:19 -6.12874 39.21555 1633 ft 157 kts 172°
2026-05-06 15:19 -6.13913 39.21653 1409 ft 141 kts 172°
2026-05-06 15:19 -6.14838 39.21752 1221 ft 127 kts 173°
2026-05-06 15:20 -6.15697 39.21834 1106 ft 123 kts 173°
2026-05-06 15:20 -6.16540 39.21914 995 ft 121 kts 173°
2026-05-06 15:20 -6.17380 39.21973 844 ft 122 kts 172°
2026-05-06 15:20 -6.18233 39.22068 660 ft 122 kts 170°
2026-05-06 15:21 -6.19076 39.22168 468 ft 123 kts 172°
2026-05-06 15:21 -6.19906 39.22262 308 ft 120 kts 174°
2026-05-06 15:21 -6.20725 39.22346 185 ft 119 kts 175°
2026-05-06 15:21 -6.21536 39.22426 70 ft 111 kts 176°
2026-05-06 15:22 -6.22153 39.22487 54 ft 59 kts 174°
2026-05-06 15:22 -6.22428 39.22513 56 ft 34 kts 174°
2026-05-06 15:22 -6.22651 39.22535 56 ft 30 kts 173°
2026-05-06 15:22 -6.22850 39.22556 56 ft 27 kts 175°
2026-05-06 15:23 -6.22986 39.22532 56 ft 18 kts 250°
2026-05-06 15:23 -6.22985 39.22413 50 ft 17 kts 313°
2026-05-06 15:23 -6.22877 39.22387 56 ft 16 kts 353°
2026-05-06 15:23 -6.22773 39.22375 57 ft 15 kts 353°
2026-05-06 15:24 -6.22677 39.22365 57 ft 14 kts 354°
2026-05-06 15:24 -6.22586 39.22357 57 ft 13 kts 355°
2026-05-06 15:24 -6.22495 39.22347 58 ft 14 kts 354°
2026-05-06 15:24 -6.22397 39.22338 58 ft 15 kts 355°
2026-05-06 15:25 -6.22293 39.22328 57 ft 15 kts 354°
2026-05-06 15:25 -6.22212 39.22320 55 ft 4 kts 355°
2026-05-06 15:25 -6.22179 39.22310 57 ft 6 kts 312°
2026-05-06 15:25 -6.22175 39.22262 59 ft 8 kts 262°
2026-05-06 15:26 -6.22177 39.22238 59 ft 0 kts 265°